QPF
0.00 0.00 0.00 0.00 0.00 0.00 0.00 0.00 0.00 0.00 0.00 0.00 0.00 0.00 0.01 0.01 0.01 0.01 0.01 0.01 0.01 0.02 0.02 0.03 0.02 0.03 0.05 0.07 0.10 0.13 0.15 0.16 0.18 0.19 0.15 0.09 0.06 0.05 0.04 0.05 0.05 0.05 0.03
0.00 0.00 0.00 0.00 0.00 0.00 0.00 0.00 0.00 0.00 0.00 0.00 0.00 0.00 0.01 0.01 0.02 0.01 0.01 0.01 0.01 0.02 0.02 0.03 0.03 0.03 0.05 0.06 0.07 0.11 0.13 0.14 0.16 0.21 0.22 0.17 0.13 0.08 0.04 0.04 0.05 0.05 0.04
0.00 0.00 0.00 0.00 0.00 0.00 0.00 0.00 0.00 0.00 0.00 0.00 0.00 0.01 0.01 0.01 0.01 0.01 0.01 0.01 0.01 0.01 0.01 0.02 0.03 0.04 0.05 0.06 0.07 0.09 0.11 0.13 0.14 0.19 0.25 0.23 0.19 0.15 0.10 0.07 0.07 0.07 0.06
0.00 0.00 0.00 0.00 0.00 0.00 0.00 0.00 0.00 0.00 0.00 0.00 0.01 0.01 0.01 0.01 0.01 0.02 0.02 0.01 0.01 0.01 0.02 0.02 0.02 0.03 0.04 0.06 0.07 0.08 0.10 0.12 0.12 0.14 0.16 0.18 0.19 0.20 0.17 0.12 0.09 0.09 0.08
0.00 0.00 0.00 0.00 0.00 0.00 0.00 0.00 0.00 0.01 0.00 0.00 0.01 0.01 0.01 0.02 0.02 0.03 0.04 0.03 0.03 0.02 0.02 0.02 0.02 0.03 0.03 0.04 0.05 0.07 0.08 0.10 0.12 0.12 0.12 0.11 0.12 0.13 0.17 0.19 0.18 0.15 0.11
0.00 0.00 0.00 0.00 0.00 0.00 0.00 0.00 0.00 0.01 0.01 0.01 0.01 0.02 0.02 0.02 0.03 0.03 0.04 0.04 0.04 0.02 0.02 0.02 0.02 0.03 0.04 0.03 0.05 0.07 0.07 0.09 0.11 0.14 0.14 0.12 0.10 0.10 0.11 0.14 0.19 0.21 0.17
0.00 0.00 0.00 0.00 0.00 0.00 0.00 0.00 0.00 0.01 0.01 0.01 0.01 0.01 0.02 0.02 0.02 0.01 0.02 0.04 0.03 0.03 0.03 0.03 0.03 0.04 0.04 0.05 0.05 0.05 0.06 0.07 0.08 0.10 0.12 0.13 0.12 0.11 0.13 0.16 0.16 0.18 0.18
0.00 0.00 0.00 0.00 0.00 0.00 0.00 0.00 0.00 0.00 0.00 0.00 0.00 0.00 0.01 0.01 0.01 0.01 0.02 0.03 0.02 0.02 0.03 0.03 0.03 0.04 0.04 0.04 0.04 0.04 0.04 0.07 0.07 0.06 0.09 0.12 0.12 0.11 0.12 0.15 0.19 0.19 0.17
0.00 0.00 0.00 0.00 0.00 0.00 0.00 0.00 0.00 0.00 0.00 0.00 0.00 0.00 0.01 0.01 0.02 0.02 0.01 0.02 0.01 0.01 0.02 0.02 0.02 0.02 0.03 0.03 0.04 0.06 0.05 0.05 0.06 0.06 0.06 0.08 0.09 0.09 0.10 0.12 0.15 0.17 0.16
0.00 0.00 0.00 0.00 0.00 0.00 0.00 0.00 0.00 0.00 0.00 0.00 0.00 0.00 0.01 0.01 0.01 0.01 0.02 0.03 0.03 0.02 0.02 0.02 0.02 0.02 0.03 0.03 0.05 0.07 0.06 0.06 0.06 0.05 0.05 0.06 0.06 0.08 0.08 0.09 0.11 0.12 0.11
0.00 0.00 0.00 0.00 0.00 0.00 0.00 0.00 0.00 0.00 0.00 0.00 0.00 0.01 0.00 0.01 0.01 0.01 0.01 0.02 0.02 0.02 0.03 0.03 0.03 0.03 0.03 0.03 0.03 0.03 0.04 0.04 0.04 0.04 0.05 0.05 0.05 0.06 0.06 0.07 0.09 0.10 0.11
0.00 0.00 0.00 0.00 0.00 0.00 0.00 0.00 0.00 0.00 0.00 0.00 0.01 0.01 0.01 0.01 0.01 0.01 0.01 0.01 0.01 0.02 0.02 0.03 0.04 0.04 0.03 0.03 0.03 0.02 0.02 0.02 0.03 0.03 0.05 0.05 0.05 0.05 0.05 0.06 0.07 0.10 0.12
0.00 0.00 0.00 0.00 0.00 0.00 0.00 0.00 0.00 0.00 0.00 0.00 0.00 0.01 0.01 0.01 0.02 0.03 0.02 0.01 0.01 0.01 0.02 0.02 0.04 0.04 0.03 0.04 0.05 0.04 0.04 0.05 0.05 0.04 0.05 0.06 0.05 0.06 0.06 0.06 0.07 0.08 0.10
0.00 0.00 0.00 0.00 0.00 0.00 0.00 0.00 0.00 0.00 0.00 0.00 0.00 0.00 0.00 0.01 0.01 0.03 0.04 0.03 0.01 0.01 0.02 0.02 0.03 0.03 0.03 0.03 0.04 0.05 0.06 0.07 0.08 0.07 0.06 0.06 0.05 0.06 0.06 0.07 0.07 0.07 0.10
0.00 0.00 0.00 0.00 0.00 0.00 0.00 0.00 0.00 0.00 0.00 0.00 0.00 0.00 0.00 0.00 0.01 0.01 0.02 0.02 0.01 0.01 0.01 0.02 0.03 0.03 0.03 0.03 0.03 0.03 0.03 0.05 0.09 0.10 0.07 0.06 0.06 0.07 0.08 0.08 0.09 0.10 0.11
0.00 0.00 0.00 0.00 0.00 0.00 0.00 0.00 0.00 0.00 0.00 0.00 0.00 0.00 0.00 0.00 0.00 0.01 0.01 0.01 0.01 0.02 0.02 0.02 0.04 0.02 0.02 0.03 0.03 0.03 0.03 0.03 0.04 0.05 0.05 0.05 0.06 0.07 0.07 0.08 0.09 0.11 0.13
0.00 0.00 0.00 0.00 0.00 0.00 0.00 0.00 0.00 0.00 0.00 0.00 0.00 0.00 0.00 0.00 0.00 0.00 0.00 0.00 0.01 0.01 0.02 0.03 0.04 0.03 0.03 0.04 0.03 0.04 0.03 0.04 0.05 0.05 0.05 0.05 0.06 0.06 0.06 0.05 0.06 0.08 0.13
0.00 0.00 0.00 0.00 0.00 0.00 0.00 0.00 0.00 0.00 0.00 0.00 0.00 0.00 0.00 0.00 0.00 0.00 0.00 0.00 0.00 0.01 0.01 0.02 0.02 0.02 0.04 0.06 0.05 0.04 0.05 0.06 0.07 0.07 0.07 0.05 0.05 0.05 0.07 0.06 0.07 0.08 0.10
0.00 0.00 0.00 0.00 0.00 0.00 0.00 0.00 0.00 0.00 0.00 0.00 0.00 0.00 0.00 0.00 0.00 0.00 0.00 0.00 0.00 0.01 0.01 0.02 0.02 0.01 0.02 0.03 0.04 0.05 0.06 0.07 0.08 0.08 0.08 0.07 0.06 0.06 0.06 0.08 0.09 0.09 0.11
0.00 0.00 0.00 0.00 0.00 0.00 0.00 0.00 0.00 0.00 0.00 0.00 0.00 0.00 0.00 0.00 0.00 0.00 0.00 0.00 0.00 0.01 0.01 0.01 0.02 0.01 0.01 0.01 0.02 0.04 0.05 0.06 0.08 0.08 0.09 0.07 0.06 0.06 0.05 0.08 0.13 0.09 0.07
0.00 0.00 0.00 0.00 0.00 0.00 0.00 0.00 0.00 0.00 0.00 0.00 0.00 0.00 0.00 0.00 0.00 0.00 0.00 0.00 0.00 0.00 0.01 0.01 0.01 0.01 0.01 0.01 0.01 0.02 0.03 0.05 0.04 0.04 0.04 0.04 0.04 0.04 0.04 0.06 0.08 0.08 0.06
0.00 0.00 0.00 0.00 0.00 0.00 0.00 0.00 0.00 0.00 0.00 0.00 0.00 0.00 0.00 0.00 0.00 0.00 0.00 0.00 0.00 0.00 0.00 0.01 0.01 0.01 0.01 0.01 0.01 0.01 0.02 0.03 0.03 0.02 0.02 0.03 0.03 0.03 0.04 0.05 0.06 0.06 0.05
0.00 0.00 0.00 0.00 0.00 0.00 0.00 0.00 0.00 0.00 0.00 0.00 0.00 0.00 0.00 0.00 0.00 0.00 0.00 0.00 0.00 0.00 0.00 0.00 0.00 0.00 0.00 0.00 0.00 0.00 0.01 0.01 0.02 0.03 0.02 0.02 0.02 0.02 0.03 0.03 0.05 0.06 0.05
0.00 0.00 0.00 0.00 0.00 0.00 0.00 0.00 0.00 0.00 0.00 0.00 0.00 0.00 0.00 0.00 0.00 0.00 0.00 0.00 0.00 0.00 0.00 0.00 0.00 0.00 0.00 0.00 0.00 0.00 0.00 0.00 0.00 0.02 0.02 0.01 0.02 0.03 0.03 0.03 0.03 0.05 0.04
0.00 0.00 0.00 0.00 0.00 0.00 0.00 0.00 0.00 0.00 0.00 0.00 0.00 0.00 0.00 0.00 0.00 0.00 0.00 0.00 0.00 0.00 0.00 0.00 0.00 0.00 0.00 0.00 0.00 0.00 0.00 0.00 0.00 0.02 0.02 0.02 0.02 0.03 0.04 0.03 0.03 0.03 0.03
0.00 0.00 0.00 0.00 0.00 0.00 0.00 0.00 0.00 0.00 0.00 0.00 0.00 0.00 0.00 0.00 0.00 0.00 0.00 0.00 0.00 0.00 0.00 0.00 0.00 0.00 0.00 0.00 0.00 0.00 0.00 0.00 0.00 0.00 0.01 0.01 0.02 0.02 0.03 0.03 0.02 0.02 0.02
MSLP
1018.41 1018.38 1018.31 1018.18 1018.02 1017.81 1017.58 1017.35 1017.13 1016.91 1016.70 1016.48 1016.25 1016.01 1015.74 1015.46 1015.17 1014.88 1014.60 1014.33 1014.07 1013.80 1013.54 1013.28 1013.03 1012.80 1012.61 1012.49 1012.44 1012.50 1012.64 1012.85 1013.11 1013.36 1013.59 1013.73 1013.79 1013.75 1013.64 1013.48 1013.32 1013.20 1013.17
1018.36 1018.34 1018.27 1018.13 1017.93 1017.70 1017.45 1017.21 1016.99 1016.81 1016.64 1016.47 1016.29 1016.10 1015.86 1015.60 1015.32 1015.02 1014.73 1014.44 1014.16 1013.88 1013.60 1013.32 1013.04 1012.78 1012.55 1012.38 1012.30 1012.31 1012.43 1012.64 1012.91 1013.21 1013.49 1013.70 1013.81 1013.82 1013.72 1013.55 1013.35 1013.17 1013.05
1018.26 1018.25 1018.17 1018.01 1017.79 1017.53 1017.27 1017.04 1016.84 1016.70 1016.58 1016.48 1016.36 1016.21 1016.01 1015.77 1015.48 1015.18 1014.86 1014.54 1014.23 1013.93 1013.63 1013.32 1013.01 1012.70 1012.42 1012.20 1012.06 1012.02 1012.10 1012.29 1012.58 1012.91 1013.24 1013.52 1013.71 1013.79 1013.75 1013.61 1013.41 1013.19 1013.01
1018.12 1018.11 1018.02 1017.85 1017.61 1017.34 1017.08 1016.86 1016.70 1016.60 1016.54 1016.50 1016.44 1016.33 1016.16 1015.92 1015.63 1015.30 1014.95 1014.60 1014.26 1013.93 1013.60 1013.26 1012.92 1012.57 1012.24 1011.96 1011.75 1011.65 1011.67 1011.83 1012.10 1012.45 1012.82 1013.18 1013.46 1013.63 1013.67 1013.59 1013.43 1013.22 1013.02
1017.95 1017.95 1017.85 1017.67 1017.42 1017.16 1016.91 1016.71 1016.58 1016.53 1016.52 1016.52 1016.50 1016.42 1016.26 1016.02 1015.72 1015.36 1014.98 1014.60 1014.23 1013.87 1013.51 1013.15 1012.78 1012.40 1012.02 1011.68 1011.40 1011.23 1011.19 1011.29 1011.53 1011.86 1012.27 1012.67 1013.03 1013.30 1013.44 1013.46 1013.37 1013.22 1013.03
1017.77 1017.78 1017.69 1017.51 1017.27 1017.02 1016.78 1016.61 1016.51 1016.49 1016.51 1016.54 1016.54 1016.47 1016.31 1016.06 1015.73 1015.35 1014.94 1014.53 1014.14 1013.76 1013.39 1013.01 1012.62 1012.21 1011.80 1011.40 1011.06 1010.81 1010.69 1010.72 1010.89 1011.20 1011.59 1012.02 1012.44 1012.79 1013.04 1013.17 1013.19 1013.12 1012.99
1017.61 1017.63 1017.56 1017.40 1017.18 1016.95 1016.73 1016.58 1016.50 1016.48 1016.51 1016.55 1016.54 1016.46 1016.29 1016.02 1015.67 1015.26 1014.84 1014.41 1014.00 1013.62 1013.24 1012.86 1012.46 1012.04 1011.59 1011.15 1010.75 1010.42 1010.21 1010.15 1010.24 1010.48 1010.84 1011.27 1011.71 1012.14 1012.48 1012.73 1012.86 1012.91 1012.87
1017.47 1017.51 1017.47 1017.34 1017.15 1016.94 1016.75 1016.61 1016.53 1016.51 1016.53 1016.55 1016.52 1016.42 1016.22 1015.93 1015.56 1015.14 1014.70 1014.27 1013.86 1013.48 1013.11 1012.73 1012.33 1011.90 1011.43 1010.95 1010.49 1010.09 1009.79 1009.62 1009.62 1009.77 1010.06 1010.45 1010.91 1011.36 1011.78 1012.14 1012.40 1012.57 1012.65
1017.33 1017.40 1017.39 1017.30 1017.16 1016.98 1016.81 1016.68 1016.60 1016.57 1016.56 1016.54 1016.48 1016.34 1016.12 1015.81 1015.42 1015.00 1014.56 1014.14 1013.74 1013.37 1013.01 1012.64 1012.24 1011.80 1011.32 1010.80 1010.29 1009.82 1009.43 1009.17 1009.07 1009.11 1009.32 1009.65 1010.07 1010.54 1011.01 1011.45 1011.83 1012.12 1012.34
1017.18 1017.28 1017.30 1017.26 1017.15 1017.01 1016.86 1016.75 1016.66 1016.61 1016.58 1016.52 1016.42 1016.26 1016.01 1015.69 1015.30 1014.88 1014.46 1014.05 1013.67 1013.31 1012.96 1012.60 1012.20 1011.76 1011.26 1010.72 1010.17 1009.64 1009.18 1008.82 1008.61 1008.56 1008.66 1008.91 1009.28 1009.73 1010.22 1010.72 1011.18 1011.60 1011.94
1016.98 1017.09 1017.15 1017.15 1017.08 1016.98 1016.87 1016.77 1016.69 1016.63 1016.57 1016.49 1016.36 1016.18 1015.92 1015.59 1015.22 1014.82 1014.41 1014.02 1013.66 1013.31 1012.97 1012.61 1012.22 1011.77 1011.26 1010.70 1010.12 1009.55 1009.03 1008.60 1008.29 1008.14 1008.15 1008.30 1008.60 1009.00 1009.48 1010.00 1010.52 1011.02 1011.47
1016.69 1016.82 1016.91 1016.93 1016.91 1016.86 1016.78 1016.71 1016.65 1016.59 1016.53 1016.44 1016.30 1016.11 1015.86 1015.55 1015.19 1014.82 1014.43 1014.07 1013.71 1013.38 1013.04 1012.68 1012.28 1011.83 1011.31 1010.75 1010.15 1009.55 1008.99 1008.51 1008.13 1007.89 1007.80 1007.86 1008.07 1008.40 1008.83 1009.33 1009.87 1010.41 1010.93
1016.33 1016.46 1016.56 1016.61 1016.63 1016.62 1016.60 1016.57 1016.54 1016.50 1016.45 1016.38 1016.25 1016.07 1015.84 1015.55 1015.22 1014.87 1014.51 1014.17 1013.83 1013.50 1013.16 1012.80 1012.40 1011.94 1011.43 1010.87 1010.27 1009.66 1009.08 1008.56 1008.13 1007.82 1007.63 1007.60 1007.70 1007.93 1008.28 1008.73 1009.23 1009.77 1010.33
1015.90 1016.02 1016.13 1016.21 1016.27 1016.30 1016.33 1016.35 1016.37 1016.37 1016.36 1016.31 1016.21 1016.06 1015.85 1015.59 1015.29 1014.97 1014.64 1014.31 1013.98 1013.66 1013.32 1012.96 1012.56 1012.11 1011.61 1011.06 1010.47 1009.87 1009.29 1008.75 1008.27 1007.90 1007.63 1007.49 1007.48 1007.60 1007.85 1008.19 1008.63 1009.12 1009.66
1015.43 1015.55 1015.66 1015.77 1015.86 1015.94 1016.02 1016.10 1016.17 1016.23 1016.25 1016.24 1016.18 1016.06 1015.88 1015.65 1015.38 1015.08 1014.77 1014.46 1014.14 1013.82 1013.49 1013.13 1012.74 1012.31 1011.83 1011.30 1010.74 1010.16 1009.59 1009.04 1008.54 1008.10 1007.76 1007.53 1007.40 1007.40 1007.51 1007.74 1008.07 1008.48 1008.96
1014.98 1015.10 1015.22 1015.34 1015.46 1015.59 1015.72 1015.86 1015.98 1016.09 1016.16 1016.18 1016.15 1016.06 1015.91 1015.70 1015.46 1015.18 1014.88 1014.58 1014.28 1013.97 1013.65 1013.30 1012.93 1012.52 1012.07 1011.58 1011.05 1010.50 1009.94 1009.39 1008.87 1008.40 1007.99 1007.66 1007.43 1007.30 1007.28 1007.38 1007.59 1007.89 1008.29
1014.57 1014.69 1014.82 1014.96 1015.12 1015.28 1015.46 1015.64 1015.81 1015.96 1016.07 1016.13 1016.13 1016.06 1015.93 1015.74 1015.50 1015.23 1014.95 1014.66 1014.36 1014.07 1013.76 1013.44 1013.10 1012.72 1012.30 1011.85 1011.36 1010.85 1010.31 1009.77 1009.23 1008.73 1008.27 1007.86 1007.54 1007.30 1007.17 1007.15 1007.24 1007.43 1007.73
1014.21 1014.34 1014.49 1014.65 1014.83 1015.03 1015.24 1015.46 1015.66 1015.84 1015.98 1016.06 1016.08 1016.03 1015.90 1015.72 1015.49 1015.23 1014.95 1014.67 1014.38 1014.10 1013.82 1013.53 1013.21 1012.88 1012.50 1012.09 1011.65 1011.16 1010.65 1010.12 1009.59 1009.07 1008.57 1008.12 1007.73 1007.42 1007.21 1007.09 1007.09 1007.19 1007.41
1013.89 1014.04 1014.21 1014.39 1014.59 1014.80 1015.04 1015.27 1015.50 1015.70 1015.86 1015.96 1015.98 1015.94 1015.82 1015.64 1015.41 1015.15 1014.88 1014.61 1014.33 1014.07 1013.81 1013.55 1013.27 1012.97 1012.65 1012.28 1011.87 1011.43 1010.94 1010.44 1009.91 1009.39 1008.89 1008.43 1008.01 1007.67 1007.41 1007.25 1007.19 1007.24 1007.40
1013.57 1013.74 1013.92 1014.11 1014.33 1014.55 1014.80 1015.05 1015.29 1015.50 1015.67 1015.77 1015.81 1015.77 1015.66 1015.49 1015.27 1015.02 1014.75 1014.49 1014.23 1013.99 1013.75 1013.52 1013.28 1013.02 1012.73 1012.41 1012.04 1011.63 1011.18 1010.71 1010.21 1009.71 1009.23 1008.78 1008.39 1008.05 1007.80 1007.64 1007.57 1007.60 1007.73
1013.21 1013.40 1013.59 1013.79 1014.00 1014.23 1014.48 1014.73 1014.97 1015.19 1015.37 1015.49 1015.54 1015.52 1015.43 1015.27 1015.07 1014.84 1014.59 1014.34 1014.10 1013.87 1013.66 1013.45 1013.25 1013.02 1012.77 1012.48 1012.16 1011.79 1011.38 1010.94 1010.49 1010.03 1009.59 1009.19 1008.84 1008.56 1008.35 1008.23 1008.19 1008.24 1008.37
1012.81 1012.99 1013.17 1013.36 1013.57 1013.79 1014.03 1014.28 1014.53 1014.75 1014.95 1015.09 1015.17 1015.18 1015.12 1014.99 1014.82 1014.62 1014.39 1014.17 1013.95 1013.75 1013.56 1013.38 1013.20 1013.01 1012.79 1012.54 1012.25 1011.92 1011.55 1011.16 1010.75 1010.35 1009.98 1009.64 1009.36 1009.14 1009.00 1008.95 1008.96 1009.05 1009.21
1012.36 1012.52 1012.68 1012.85 1013.04 1013.24 1013.47 1013.71 1013.95 1014.19 1014.40 1014.57 1014.69 1014.74 1014.72 1014.65 1014.52 1014.36 1014.18 1013.98 1013.80 1013.63 1013.47 1013.32 1013.17 1013.00 1012.82 1012.60 1012.35 1012.06 1011.73 1011.39 1011.03 1010.68 1010.36 1010.09 1009.88 1009.74 1009.67 1009.68 1009.75 1009.89 1010.08
1011.91 1012.03 1012.16 1012.29 1012.44 1012.62 1012.82 1013.04 1013.28 1013.52 1013.75 1013.95 1014.11 1014.21 1014.25 1014.23 1014.16 1014.05 1013.92 1013.77 1013.63 1013.49 1013.37 1013.25 1013.13 1013.00 1012.85 1012.67 1012.46 1012.20 1011.92 1011.61 1011.30 1011.00 1010.73 1010.51 1010.35 1010.26 1010.25 1010.31 1010.43 1010.61 1010.82
1011.54 1011.60 1011.67 1011.76 1011.86 1012.00 1012.16 1012.36 1012.58 1012.81 1013.05 1013.27 1013.45 1013.59 1013.68 1013.72 1013.71 1013.66 1013.58 1013.49 1013.39 1013.30 1013.22 1013.14 1013.06 1012.97 1012.86 1012.72 1012.54 1012.33 1012.09 1011.82 1011.54 1011.27 1011.03 1010.84 1010.71 1010.64 1010.65 1010.73 1010.87 1011.06 1011.28
1011.30 1011.31 1011.32 1011.35 1011.40 1011.48 1011.59 1011.73 1011.91 1012.12 1012.34 1012.54 1012.74 1012.90 1013.02 1013.10 1013.14 1013.14 1013.11 1013.07 1013.03 1012.98 1012.95 1012.92 1012.89 1012.85 1012.79 1012.70 1012.57 1012.40 1012.19 1011.96 1011.71 1011.46 1011.23 1011.04 1010.90 1010.83 1010.83 1010.89 1011.01 1011.18 1011.39
Thickness
5702 5698 5693 5690 5687 5683 5680 5677 5675 5673 5671 5669 5669 5669 5671 5673 5676 5677 5678 5680 5683 5686 5691 5695 5699 5702 5706 5710 5714 5717 5718 5720 5723 5722 5723 5729 5735 5740 5742 5744 5747 5749 5750
5700 5696 5691 5688 5683 5679 5676 5674 5672 5669 5667 5664 5663 5663 5664 5666 5669 5670 5671 5673 5676 5678 5683 5687 5691 5694 5698 5701 5706 5709 5711 5714 5717 5716 5714 5714 5720 5727 5736 5739 5740 5744 5746
5697 5693 5689 5685 5681 5677 5674 5670 5668 5666 5663 5661 5660 5660 5661 5662 5663 5664 5665 5667 5669 5672 5674 5679 5683 5686 5690 5694 5698 5702 5704 5706 5709 5712 5711 5709 5710 5717 5725 5731 5735 5737 5740
5697 5692 5688 5684 5680 5676 5673 5670 5667 5664 5661 5659 5657 5655 5653 5654 5656 5658 5660 5663 5665 5667 5669 5672 5675 5679 5683 5687 5691 5696 5699 5700 5702 5705 5708 5711 5711 5709 5712 5719 5727 5730 5732
5698 5693 5688 5684 5681 5677 5672 5669 5666 5663 5660 5658 5655 5653 5652 5652 5654 5655 5656 5659 5661 5663 5664 5667 5670 5673 5676 5680 5684 5688 5692 5695 5698 5700 5701 5703 5705 5709 5708 5708 5714 5720 5725
5699 5694 5690 5685 5681 5677 5672 5669 5665 5662 5659 5657 5655 5653 5650 5649 5650 5650 5651 5653 5656 5658 5661 5662 5665 5668 5671 5674 5677 5681 5685 5689 5693 5696 5698 5699 5700 5702 5704 5705 5706 5709 5715
5699 5694 5690 5685 5681 5676 5672 5669 5665 5661 5659 5657 5655 5653 5650 5649 5648 5647 5648 5649 5651 5653 5655 5657 5660 5662 5665 5668 5671 5675 5678 5683 5687 5691 5693 5696 5699 5701 5702 5701 5700 5702 5707
5701 5695 5691 5686 5682 5678 5673 5669 5666 5662 5659 5656 5655 5653 5651 5649 5648 5646 5646 5647 5648 5649 5650 5653 5655 5657 5659 5663 5666 5669 5673 5677 5681 5685 5688 5690 5693 5696 5697 5697 5696 5694 5697
5702 5698 5694 5689 5684 5680 5675 5671 5667 5663 5660 5657 5654 5652 5650 5648 5647 5647 5647 5646 5647 5647 5647 5649 5651 5653 5655 5658 5661 5664 5667 5671 5675 5679 5682 5685 5688 5690 5692 5694 5694 5691 5690
5706 5701 5697 5692 5687 5683 5678 5673 5669 5665 5661 5659 5656 5652 5650 5648 5647 5647 5645 5645 5645 5644 5645 5646 5648 5649 5652 5654 5656 5659 5662 5665 5668 5672 5676 5679 5682 5685 5687 5689 5690 5691 5690
5708 5704 5700 5695 5690 5686 5681 5676 5672 5668 5664 5661 5658 5655 5652 5649 5648 5646 5645 5644 5644 5644 5644 5644 5645 5646 5648 5651 5653 5656 5658 5661 5664 5667 5671 5673 5677 5679 5681 5683 5685 5686 5687
5712 5708 5703 5698 5693 5688 5684 5680 5675 5671 5667 5663 5660 5656 5653 5650 5648 5646 5645 5644 5643 5643 5642 5642 5643 5644 5646 5648 5650 5651 5654 5656 5658 5662 5665 5668 5672 5673 5676 5677 5678 5681 5683
5715 5711 5706 5701 5696 5692 5687 5683 5679 5674 5670 5666 5662 5659 5655 5652 5649 5647 5645 5645 5644 5643 5642 5641 5641 5642 5644 5646 5648 5650 5652 5653 5655 5658 5660 5663 5666 5668 5670 5672 5673 5675 5677
5718 5713 5708 5704 5699 5696 5691 5687 5682 5677 5673 5669 5665 5660 5657 5653 5650 5649 5647 5646 5645 5644 5642 5642 5641 5642 5644 5645 5647 5649 5650 5651 5653 5655 5657 5660 5661 5663 5665 5666 5668 5670 5670
5720 5716 5712 5709 5704 5700 5695 5690 5685 5681 5676 5672 5667 5663 5660 5656 5652 5650 5648 5647 5645 5644 5642 5641 5641 5641 5642 5642 5643 5646 5647 5649 5650 5651 5653 5655 5656 5657 5659 5661 5663 5664 5665
5724 5721 5717 5712 5708 5703 5698 5692 5688 5684 5680 5675 5670 5665 5662 5658 5654 5651 5650 5647 5645 5644 5643 5642 5640 5639 5640 5638 5638 5640 5644 5646 5647 5647 5649 5651 5652 5652 5653 5654 5656 5658 5661
5728 5724 5721 5717 5713 5709 5703 5697 5692 5687 5683 5678 5673 5668 5665 5660 5656 5654 5651 5648 5647 5645 5643 5642 5641 5639 5637 5636 5636 5637 5641 5643 5644 5645 5646 5648 5649 5649 5651 5651 5651 5653 5655
5731 5727 5724 5720 5716 5712 5707 5701 5696 5690 5686 5681 5676 5671 5667 5663 5659 5656 5653 5651 5649 5646 5644 5642 5641 5639 5637 5635 5635 5637 5641 5641 5642 5643 5644 5644 5645 5646 5647 5649 5649 5650 5652
5735 5731 5727 5723 5719 5714 5709 5703 5698 5693 5688 5683 5679 5674 5670 5665 5662 5658 5655 5653 5651 5648 5646 5643 5641 5640 5639 5635 5635 5636 5639 5639 5640 5641 5641 5641 5642 5640 5642 5645 5645 5645 5647
5736 5731 5727 5724 5719 5715 5710 5704 5700 5696 5691 5686 5682 5677 5673 5668 5664 5661 5658 5655 5653 5650 5648 5646 5644 5642 5640 5636 5635 5635 5639 5638 5638 5637 5638 5635 5636 5636 5638 5642 5643 5642 5642
5735 5731 5727 5723 5719 5716 5710 5706 5703 5698 5694 5689 5685 5680 5675 5671 5668 5664 5661 5658 5655 5652 5651 5649 5647 5644 5640 5637 5635 5634 5636 5636 5636 5636 5636 5634 5632 5633 5635 5637 5639 5638 5640
5733 5729 5725 5722 5719 5716 5710 5707 5703 5701 5696 5690 5685 5681 5678 5674 5671 5667 5663 5661 5658 5655 5653 5651 5650 5647 5644 5638 5635 5633 5633 5633 5635 5634 5633 5632 5630 5631 5632 5634 5633 5634 5636
5731 5727 5724 5721 5718 5714 5710 5707 5704 5701 5696 5690 5687 5684 5680 5677 5673 5669 5666 5664 5661 5659 5657 5654 5652 5650 5647 5643 5637 5635 5633 5632 5633 5633 5629 5628 5629 5630 5631 5629 5630 5633 5635
5728 5725 5722 5719 5717 5714 5710 5707 5705 5701 5696 5692 5689 5687 5683 5680 5677 5671 5669 5666 5664 5661 5659 5656 5654 5651 5649 5646 5643 5641 5638 5635 5635 5634 5631 5629 5629 5629 5628 5630 5631 5632 5633
5725 5722 5719 5717 5716 5714 5710 5707 5703 5700 5696 5694 5692 5689 5685 5682 5678 5675 5671 5669 5666 5663 5659 5658 5656 5653 5650 5646 5640 5639 5640 5638 5637 5635 5636 5635 5635 5634 5633 5632 5631 5630 5631
5720 5717 5715 5714 5713 5712 5708 5706 5702 5699 5696 5694 5693 5690 5686 5682 5679 5676 5674 5668 5664 5661 5657 5653 5651 5652 5648 5643 5641 5638 5636 5635 5633 5635 5638 5637 5636 5635 5633 5633 5632 5631 5631